TimeEST,TemperatureF,Dew PointF,Humidity,Sea Level PressureIn,VisibilityMPH,Wind Direction,Wind SpeedMPH,Gust SpeedMPH,PrecipitationIn,Events,Conditions,WindDirDegrees,DateUTC
12:15 AM,37.4,28.4,70,30.30,10.0,Calm,Calm,-,N/A,,Clear,0,2012-11-16 05:15:00
12:35 AM,37.4,28.4,70,30.31,10.0,Calm,Calm,-,N/A,,Clear,0,2012-11-16 05:35:00
12:55 AM,37.4,28.4,70,30.31,10.0,NNW,3.5,-,N/A,,Clear,330,2012-11-16 05:55:00
1:15 AM,37.4,28.4,70,30.31,10.0,North,3.5,-,N/A,,Clear,350,2012-11-16 06:15:00
1:35 AM,37.4,28.4,70,30.31,10.0,North,4.6,-,N/A,,Clear,350,2012-11-16 06:35:00
1:55 AM,37.4,26.6,65,30.31,10.0,North,3.5,-,N/A,,Clear,360,2012-11-16 06:55:00
2:15 AM,37.4,28.4,70,30.31,10.0,North,3.5,-,N/A,,Clear,350,2012-11-16 07:15:00
2:35 AM,35.6,28.4,75,30.31,10.0,North,4.6,-,N/A,,Clear,350,2012-11-16 07:35:00
3:15 AM,35.6,28.4,75,30.31,10.0,Calm,Calm,-,N/A,,Clear,0,2012-11-16 08:15:00
3:35 AM,37.4,28.4,70,30.31,10.0,Calm,Calm,-,N/A,,Clear,0,2012-11-16 08:35:00
4:15 AM,35.6,28.4,75,30.30,10.0,Calm,Calm,-,N/A,,Clear,0,2012-11-16 09:15:00
4:35 AM,35.6,28.4,75,30.31,10.0,Calm,Calm,-,N/A,,Clear,0,2012-11-16 09:35:00
4:55 AM,37.4,28.4,70,30.31,10.0,Calm,Calm,-,N/A,,Clear,0,2012-11-16 09:55:00
5:15 AM,35.6,28.4,75,30.31,10.0,Calm,Calm,-,N/A,,Clear,0,2012-11-16 10:15:00
5:35 AM,37.4,28.4,70,30.31,10.0,Calm,Calm,-,N/A,,Clear,0,2012-11-16 10:35:00
5:55 AM,35.6,28.4,75,30.31,10.0,North,3.5,-,N/A,,Clear,360,2012-11-16 10:55:00
6:15 AM,35.6,28.4,75,30.30,10.0,North,4.6,-,N/A,,Clear,360,2012-11-16 11:15:00
7:15 AM,35.6,28.4,75,30.33,10.0,Calm,Calm,-,N/A,,Clear,0,2012-11-16 12:15:00
7:55 AM,37.4,30.2,75,30.34,10.0,Calm,Calm,-,N/A,,Clear,0,2012-11-16 12:55:00
8:15 AM,37.4,28.4,70,30.34,10.0,Calm,Calm,-,N/A,,Clear,0,2012-11-16 13:15:00
8:35 AM,37.4,30.2,75,30.34,10.0,North,4.6,-,N/A,,Clear,350,2012-11-16 13:35:00
8:55 AM,41.0,30.2,65,30.35,10.0,NNW,5.8,-,N/A,,Clear,340,2012-11-16 13:55:00
9:15 AM,42.8,30.2,61,30.34,10.0,North,8.1,-,N/A,,Clear,360,2012-11-16 14:15:00
9:35 AM,42.8,28.4,57,30.35,10.0,North,9.2,-,N/A,,Clear,10,2012-11-16 14:35:00
9:55 AM,42.8,30.2,61,30.35,10.0,North,9.2,-,N/A,,Clear,360,2012-11-16 14:55:00
10:15 AM,42.8,30.2,61,30.35,10.0,North,6.9,-,N/A,,Clear,360,2012-11-16 15:15:00
10:35 AM,42.8,28.4,57,30.35,10.0,North,6.9,-,N/A,,Clear,10,2012-11-16 15:35:00
10:55 AM,42.8,28.4,57,30.35,10.0,North,8.1,-,N/A,,Clear,10,2012-11-16 15:55:00
11:15 AM,44.6,28.4,53,30.35,10.0,North,9.2,-,N/A,,Clear,10,2012-11-16 16:15:00
11:35 AM,44.6,30.2,57,30.35,10.0,North,5.8,-,N/A,,Clear,10,2012-11-16 16:35:00
11:55 AM,44.6,30.2,57,30.34,10.0,North,8.1,-,N/A,,Clear,350,2012-11-16 16:55:00
12:15 PM,44.6,28.4,53,30.33,10.0,NE,8.1,-,N/A,,Clear,40,2012-11-16 17:15:00
12:35 PM,46.4,28.4,50,30.33,10.0,NE,3.5,-,N/A,,Clear,50,2012-11-16 17:35:00
12:55 PM,44.6,28.4,53,30.33,10.0,Calm,Calm,-,N/A,,Clear,0,2012-11-16 17:55:00
1:15 PM,44.6,28.4,53,30.33,10.0,North,5.8,-,N/A,,Clear,360,2012-11-16 18:15:00
1:35 PM,46.4,28.4,50,30.32,10.0,North,6.9,-,N/A,,Clear,10,2012-11-16 18:35:00
1:55 PM,48.2,30.2,50,30.32,10.0,NNW,6.9,-,N/A,,Clear,340,2012-11-16 18:55:00
2:15 PM,48.2,28.4,46,30.32,10.0,NNW,8.1,-,N/A,,Clear,330,2012-11-16 19:15:00
2:35 PM,48.2,28.4,46,30.32,10.0,North,6.9,-,N/A,,Clear,360,2012-11-16 19:35:00
2:55 PM,48.2,28.4,46,30.32,10.0,North,6.9,-,N/A,,Clear,350,2012-11-16 19:55:00
3:15 PM,48.2,28.4,46,30.33,10.0,North,3.5,-,N/A,,Clear,350,2012-11-16 20:15:00
3:35 PM,48.2,30.2,50,30.34,10.0,North,4.6,-,N/A,,Clear,360,2012-11-16 20:35:00
3:55 PM,48.2,30.2,50,30.34,10.0,NNW,5.8,-,N/A,,Clear,340,2012-11-16 20:55:00
4:15 PM,46.4,30.2,53,30.35,10.0,North,5.8,-,N/A,,Clear,350,2012-11-16 21:15:00
4:35 PM,46.4,30.2,53,30.35,10.0,North,6.9,-,N/A,,Clear,350,2012-11-16 21:35:00
4:55 PM,44.6,28.4,53,30.35,10.0,NNW,5.8,-,N/A,,Clear,340,2012-11-16 21:55:00
5:15 PM,44.6,28.4,53,30.36,10.0,NNW,4.6,-,N/A,,Clear,340,2012-11-16 22:15:00
5:35 PM,44.6,28.4,53,30.37,10.0,NNW,4.6,-,N/A,,Clear,340,2012-11-16 22:35:00
5:55 PM,42.8,26.6,53,30.37,10.0,NNW,3.5,-,N/A,,Clear,330,2012-11-16 22:55:00
6:15 PM,41.0,26.6,57,30.38,10.0,NNW,4.6,-,N/A,,Clear,330,2012-11-16 23:15:00
6:35 PM,42.8,26.6,53,30.38,10.0,NNW,4.6,-,N/A,,Clear,330,2012-11-16 23:35:00
6:55 PM,42.8,26.6,53,30.38,10.0,NNW,4.6,-,N/A,,Clear,340,2012-11-16 23:55:00
7:15 PM,42.8,26.6,53,30.39,10.0,North,4.6,-,N/A,,Clear,350,2012-11-17 00:15:00
7:35 PM,42.8,26.6,53,30.40,10.0,North,4.6,-,N/A,,Clear,350,2012-11-17 00:35:00
7:55 PM,41.0,26.6,57,30.40,10.0,North,6.9,-,N/A,,Clear,360,2012-11-17 00:55:00
8:15 PM,41.0,26.6,57,30.41,10.0,North,6.9,-,N/A,,Clear,360,2012-11-17 01:15:00
8:55 PM,39.2,26.6,61,30.42,10.0,North,4.6,-,N/A,,Clear,360,2012-11-17 01:55:00
9:15 PM,39.2,24.8,56,30.43,10.0,North,3.5,-,N/A,,Clear,360,2012-11-17 02:15:00
9:55 PM,39.2,24.8,56,30.44,10.0,North,5.8,-,N/A,,Clear,350,2012-11-17 02:55:00
10:15 PM,39.2,26.6,61,30.44,10.0,North,5.8,-,N/A,,Clear,350,2012-11-17 03:15:00
10:55 PM,37.4,26.6,65,30.44,10.0,North,5.8,-,N/A,,Clear,360,2012-11-17 03:55:00
11:15 PM,37.4,26.6,65,30.44,10.0,North,6.9,-,N/A,,Clear,350,2012-11-17 04:15:00
11:35 PM,37.4,26.6,65,30.44,10.0,North,8.1,-,N/A,,Clear,350,2012-11-17 04:35:00
11:55 PM,37.4,26.6,65,30.45,10.0,North,6.9,-,N/A,,Clear,350,2012-11-17 04:55:00